contact:dominique.lefevre@mio.osupytheas.fr, maurice.libes@osupytheas.fr, didier.mallarino@osupytheas.fr
Project:EMSO http://www.emso-fr.org/EMSO-France
Depth: 2436.0 m
Title:EMSO Ligure Ouest : Data MII capteur AQUADOPP
Date,Latitude,Longitude,X_East,Y_North,Z_Up,Amplitude_X,Amplitude_Y,Amplitude_Z,Batterie,SoundSpeed,Heading,Pitch,Roll,Pressure,TIS,Speed,Direction
, degrees North, degrees East, m.s-1, m.s-1,m.s-1, 1, 1, 1, Volt, m.s-1, degree, degree, degree, dbar, degree_C, m.s-1, degree
2021-03-17T00:04:03,42.805,6.029,0.054,-0.033,-0.001,107.0,107.0,105.0,13.4,1505.2,327.5,-0.8,1.8,2469.664,13.28,0.063,121.4
2021-03-17T00:07:03,42.805,6.029,0.056,-0.034,0.044,107.0,107.0,104.0,13.4,1505.2,327.5,-0.8,1.8,2469.65,13.28,0.065,121.3
2021-03-17T00:10:03,42.805,6.029,0.066,-0.026,0.024,106.0,106.0,104.0,13.4,1505.2,327.5,-0.8,1.8,2469.633,13.28,0.07,111.5
2021-03-17T00:13:03,42.805,6.029,0.057,-0.041,-0.011,106.0,107.0,104.0,13.3,1505.2,326.8,-0.8,1.8,2469.604,13.28,0.07,125.7
2021-03-17T00:16:03,42.805,6.029,0.05,-0.03,0.025,106.0,107.0,104.0,13.4,1505.2,327.3,-0.7,1.8,2469.593,13.28,0.058,121.0
2021-03-17T00:19:03,42.805,6.029,0.036,-0.033,0.01,106.0,105.0,104.0,13.4,1505.2,327.5,-0.7,1.8,2469.555,13.28,0.048,132.5
2021-03-17T00:22:03,42.805,6.029,0.033,-0.014,0.007,108.0,107.0,104.0,13.4,1505.2,327.1,-0.8,1.8,2469.535,13.28,0.035,113.0
2021-03-17T00:25:03,42.805,6.029,0.053,-0.031,0.027,108.0,108.0,104.0,13.3,1505.2,327.8,-0.7,1.8,2469.534,13.28,0.061,120.3
2021-03-17T00:28:03,42.805,6.029,0.036,-0.022,-0.006,107.0,109.0,104.0,13.3,1505.2,327.2,-0.7,1.9,2469.596,13.28,0.042,121.4
2021-03-17T00:31:03,42.805,6.029,0.026,-0.044,0.015,106.0,107.0,105.0,13.4,1505.2,327.5,-0.7,1.8,2469.538,13.28,0.051,149.4
2021-03-17T00:34:03,42.805,6.029,0.032,-0.038,0.016,107.0,107.0,104.0,13.4,1505.2,327.5,-0.7,1.8,2469.572,13.28,0.049,139.9
2021-03-17T00:37:03,42.805,6.029,0.051,-0.023,0.024,106.0,105.0,104.0,13.4,1505.2,327.1,-0.7,1.8,2469.563,13.28,0.055,114.3
2021-03-17T00:40:03,42.805,6.029,0.08,-0.015,0.027,107.0,107.0,103.0,13.4,1505.2,327.3,-0.8,1.8,2469.564,13.28,0.081,100.6
2021-03-17T00:43:03,42.805,6.029,0.039,-0.02,-0.007,107.0,107.0,104.0,13.4,1505.2,327.2,-0.8,1.8,2469.57,13.28,0.043,117.1
2021-03-17T00:46:03,42.805,6.029,0.035,-0.027,0.04,107.0,109.0,104.0,13.4,1505.2,327.0,-0.8,1.8,2469.582,13.28,0.044,127.7
2021-03-17T00:49:03,42.805,6.029,0.058,-0.022,0.029,108.0,108.0,104.0,13.3,1505.2,326.7,-0.8,1.8,2469.577,13.28,0.062,110.8
2021-03-17T00:52:03,42.805,6.029,0.046,-0.029,-0.007,106.0,108.0,105.0,13.3,1505.2,327.4,-0.8,1.8,2469.523,13.28,0.054,122.2
2021-03-17T00:55:03,42.805,6.029,0.046,-0.031,-0.007,107.0,108.0,104.0,13.4,1505.2,327.6,-0.8,1.8,2469.559,13.28,0.055,124.0
2021-03-17T00:58:03,42.805,6.029,0.043,-0.027,-0.002,107.0,108.0,104.0,13.4,1505.2,327.7,-0.7,1.8,2469.575,13.28,0.05,122.1
2021-03-17T01:04:03,42.805,6.029,0.062,-0.03,0.002,107.0,108.0,104.0,13.3,1505.2,327.2,-0.8,1.8,2469.552,13.28,0.068,115.8
2021-03-17T01:07:03,42.805,6.029,0.052,-0.032,0.013,108.0,106.0,104.0,13.3,1505.2,327.2,-0.8,1.9,2469.503,13.28,0.061,121.6
2021-03-17T01:10:03,42.805,6.029,0.057,-0.038,-0.013,107.0,106.0,104.0,13.4,1505.2,327.0,-0.8,1.8,2469.501,13.28,0.068,123.7
2021-03-17T01:13:03,42.805,6.029,0.039,-0.025,0.017,106.0,108.0,104.0,13.4,1505.2,327.0,-0.8,1.8,2469.443,13.28,0.046,122.7
2021-03-17T01:16:03,42.805,6.029,0.05,-0.026,0.016,107.0,108.0,104.0,13.3,1505.2,326.8,-0.8,1.8,2469.439,13.28,0.056,117.5
2021-03-17T01:19:03,42.805,6.029,0.05,-0.033,0.014,107.0,106.0,105.0,13.4,1505.2,327.5,-0.8,1.8,2469.422,13.28,0.059,123.4
2021-03-17T01:22:03,42.805,6.029,0.065,-0.024,0.017,107.0,107.0,104.0,13.4,1505.2,327.6,-0.8,1.8,2469.38,13.28,0.069,110.3
2021-03-17T01:25:03,42.805,6.029,0.06,-0.03,0.006,106.0,107.0,103.0,13.3,1505.2,327.5,-0.8,1.8,2469.379,13.28,0.067,116.6
2021-03-17T01:28:03,42.805,6.029,0.064,-0.035,-0.004,108.0,106.0,103.0,13.3,1505.2,327.3,-0.7,1.8,2469.339,13.28,0.072,118.7
2021-03-17T01:31:03,42.805,6.029,0.04,-0.017,0.003,107.0,107.0,104.0,13.4,1505.2,327.4,-0.8,1.8,2469.321,13.28,0.043,113.0
2021-03-17T01:34:03,42.805,6.029,0.052,-0.023,-0.001,107.0,107.0,104.0,13.3,1505.2,327.2,-0.7,1.8,2469.257,13.28,0.056,113.9
2021-03-17T01:37:03,42.805,6.029,0.036,-0.022,0.021,107.0,106.0,104.0,13.4,1505.2,327.3,-0.8,1.8,2469.164,13.28,0.042,121.4
2021-03-17T01:40:03,42.805,6.029,0.043,-0.026,0.018,107.0,105.0,104.0,13.4,1505.2,327.2,-0.8,1.8,2469.16,13.28,0.05,121.2
2021-03-17T01:43:03,42.805,6.029,0.047,-0.019,-0.009,107.0,107.0,104.0,13.4,1505.2,327.0,-0.8,1.8,2469.154,13.28,0.05,112.0
2021-03-17T01:46:03,42.805,6.029,0.048,-0.017,0.008,107.0,109.0,105.0,13.3,1505.2,327.1,-0.8,1.8,2469.146,13.28,0.05,109.5
2021-03-17T01:49:03,42.805,6.029,0.034,-0.025,0.01,107.0,107.0,106.0,13.4,1505.2,327.3,-0.7,1.8,2469.149,13.28,0.042,126.3
2021-03-17T01:52:03,42.805,6.029,0.039,-0.036,0.012,106.0,107.0,105.0,13.4,1505.2,327.4,-0.7,1.8,2469.111,13.28,0.053,132.7
2021-03-17T01:55:03,42.805,6.029,0.043,-0.025,0.011,106.0,107.0,103.0,13.4,1505.2,327.1,-0.7,1.8,2469.004,13.28,0.049,120.2
2021-03-17T01:58:03,42.805,6.029,0.05,-0.023,0.003,107.0,107.0,104.0,13.4,1505.2,327.3,-0.8,1.8,2469.017,13.28,0.055,114.7
2021-03-17T02:04:03,42.805,6.029,0.052,-0.01,0.02,106.0,108.0,104.0,13.3,1505.2,327.7,-0.8,1.8,2468.888,13.28,0.052,100.9
2021-03-17T02:07:03,42.805,6.029,0.058,-0.032,0.04,106.0,106.0,104.0,13.4,1505.2,327.1,-0.8,1.8,2468.843,13.28,0.066,118.9
2021-03-17T02:10:03,42.805,6.029,0.074,-0.029,0.017,107.0,107.0,105.0,13.4,1505.2,327.1,-0.8,1.8,2468.86,13.28,0.079,111.4
2021-03-17T02:13:03,42.805,6.029,0.07,-0.013,0.04,106.0,108.0,104.0,13.4,1505.2,327.1,-0.7,1.8,2468.85,13.28,0.071,100.5
2021-03-17T02:16:03,42.805,6.029,0.054,-0.015,0.006,108.0,108.0,103.0,13.4,1505.2,327.1,-0.8,1.8,2468.866,13.28,0.056,105.5
2021-03-17T02:19:03,42.805,6.029,0.064,-0.022,0.024,106.0,108.0,104.0,13.4,1505.2,327.2,-0.8,1.8,2468.878,13.28,0.067,109.0
2021-03-17T02:22:03,42.805,6.029,0.056,-0.032,0.0,107.0,105.0,104.0,13.4,1505.2,327.2,-0.8,1.8,2468.784,13.28,0.064,119.7
2021-03-17T02:25:03,42.805,6.029,0.053,-0.03,0.027,108.0,107.0,105.0,13.3,1505.2,327.6,-0.7,1.8,2468.819,13.28,0.06,119.5
2021-03-17T02:28:03,42.805,6.029,0.052,-0.024,-0.003,106.0,108.0,104.0,13.4,1505.2,327.3,-0.7,1.8,2468.838,13.28,0.057,114.8
2021-03-17T02:31:03,42.805,6.029,0.049,-0.002,0.004,106.0,107.0,103.0,13.4,1505.2,326.7,-0.8,1.8,2468.791,13.28,0.049,92.3
2021-03-17T02:34:03,42.805,6.029,0.05,-0.025,-0.002,106.0,107.0,104.0,13.4,1505.2,327.3,-0.7,1.8,2468.841,13.28,0.055,116.6
2021-03-17T02:37:03,42.805,6.029,0.076,-0.024,0.03,107.0,107.0,104.0,13.4,1505.2,326.7,-0.8,1.8,2468.77,13.28,0.079,107.5
2021-03-17T02:40:03,42.805,6.029,0.077,-0.026,0.005,106.0,105.0,103.0,13.4,1505.2,327.2,-0.7,1.8,2468.786,13.28,0.081,108.7
2021-03-17T02:43:03,42.805,6.029,0.043,-0.036,0.029,106.0,107.0,103.0,13.4,1505.2,327.1,-0.8,1.8,2468.792,13.28,0.056,129.9
2021-03-17T02:46:03,42.805,6.029,0.065,-0.019,0.021,107.0,106.0,104.0,13.3,1505.2,327.3,-0.8,1.8,2468.802,13.28,0.067,106.3
2021-03-17T02:49:03,42.805,6.029,0.049,-0.037,0.034,107.0,107.0,103.0,13.4,1505.2,327.0,-0.8,1.8,2468.838,13.28,0.061,127.1
2021-03-17T02:52:03,42.805,6.029,0.058,-0.015,0.015,106.0,106.0,103.0,13.4,1505.2,327.1,-0.8,1.8,2468.822,13.28,0.059,104.5
2021-03-17T02:55:03,42.805,6.029,0.054,-0.017,0.018,106.0,107.0,103.0,13.4,1505.2,327.7,-0.8,1.8,2468.775,13.28,0.056,107.5
2021-03-17T02:58:03,42.805,6.029,0.07,-0.023,0.011,105.0,108.0,104.0,13.3,1505.2,327.6,-0.8,1.8,2468.805,13.28,0.073,108.2
2021-03-17T03:04:03,42.805,6.029,0.057,-0.029,0.015,107.0,107.0,106.0,13.4,1505.2,327.2,-0.7,1.8,2468.753,13.28,0.063,117.0
2021-03-17T03:07:03,42.805,6.029,0.059,-0.033,0.019,108.0,108.0,105.0,13.4,1505.2,327.5,-0.7,1.8,2468.784,13.28,0.067,119.2
2021-03-17T03:10:03,42.805,6.029,0.043,0.003,0.037,108.0,108.0,105.0,13.4,1505.2,327.1,-0.8,1.8,2468.769,13.28,0.043,86.0
2021-03-17T03:13:03,42.805,6.029,0.061,-0.032,0.024,108.0,108.0,104.0,13.4,1505.2,327.5,-0.7,1.8,2468.774,13.28,0.068,117.7
2021-03-17T03:16:03,42.805,6.029,0.064,-0.031,0.03,107.0,106.0,104.0,13.4,1505.2,327.7,-0.8,1.8,2468.737,13.28,0.071,115.8
2021-03-17T03:19:03,42.805,6.029,0.056,-0.014,0.02,107.0,106.0,104.0,13.4,1505.2,327.6,-0.8,1.8,2468.705,13.28,0.057,104.0
2021-03-17T03:22:03,42.805,6.029,0.044,-0.023,0.018,108.0,106.0,105.0,13.3,1505.2,327.1,-0.7,1.8,2468.747,13.28,0.049,117.6
2021-03-17T03:25:03,42.805,6.029,0.033,-0.036,-0.014,108.0,108.0,104.0,13.4,1505.2,327.6,-0.7,1.8,2468.747,13.28,0.048,137.5
2021-03-17T03:28:03,42.805,6.029,0.063,-0.029,0.023,106.0,109.0,103.0,13.4,1505.2,327.0,-0.8,1.8,2468.773,13.28,0.069,114.7
2021-03-17T03:31:03,42.805,6.029,0.068,-0.018,0.022,106.0,106.0,104.0,13.4,1505.2,327.2,-0.7,1.8,2468.782,13.28,0.07,104.8
2021-03-17T03:34:03,42.805,6.029,0.049,-0.023,0.031,107.0,107.0,104.0,13.4,1505.2,327.2,-0.8,1.8,2468.838,13.28,0.054,115.1
2021-03-17T03:37:03,42.805,6.029,0.044,-0.031,0.001,108.0,106.0,104.0,13.4,1505.2,327.2,-0.7,1.8,2468.739,13.28,0.053,125.2
2021-03-17T03:40:03,42.805,6.029,0.058,-0.036,0.014,107.0,107.0,105.0,13.4,1505.2,327.0,-0.8,1.8,2468.795,13.28,0.068,121.8
2021-03-17T03:43:03,42.805,6.029,0.038,-0.012,-0.001,107.0,108.0,105.0,13.4,1505.2,327.3,-0.8,1.8,2468.777,13.28,0.039,107.5
2021-03-17T03:46:03,42.805,6.029,0.068,-0.028,0.002,108.0,108.0,104.0,13.4,1505.2,326.8,-0.7,1.9,2468.778,13.28,0.073,112.4
2021-03-17T03:49:03,42.805,6.029,0.065,-0.035,0.016,107.0,107.0,104.0,13.4,1505.2,327.3,-0.8,1.8,2468.799,13.28,0.073,118.3
2021-03-17T03:52:03,42.805,6.029,0.04,-0.025,-0.003,107.0,107.0,104.0,13.3,1505.2,327.5,-0.7,1.8,2468.756,13.28,0.047,122.0
2021-03-17T03:55:03,42.805,6.029,0.041,-0.041,0.007,106.0,107.0,104.0,13.4,1505.2,327.8,-0.7,1.8,2468.849,13.28,0.057,135.0
2021-03-17T03:58:03,42.805,6.029,0.043,-0.02,0.015,107.0,106.0,103.0,13.4,1505.2,327.5,-0.7,1.8,2468.895,13.28,0.047,114.9
2021-03-17T04:04:03,42.805,6.029,0.046,-0.019,0.003,108.0,106.0,105.0,13.4,1505.2,327.7,-0.8,1.8,2469.058,13.28,0.049,112.4
2021-03-17T04:07:03,42.805,6.029,0.054,-0.018,0.004,108.0,107.0,104.0,13.4,1505.2,327.2,-0.7,1.8,2468.998,13.28,0.056,108.4
2021-03-17T04:10:03,42.805,6.029,0.055,-0.036,0.025,108.0,105.0,104.0,13.4,1505.2,327.5,-0.8,1.8,2468.924,13.28,0.065,123.2
2021-03-17T04:13:03,42.805,6.029,0.063,-0.01,0.057,108.0,105.0,106.0,13.4,1505.2,327.2,-0.8,1.8,2469.061,13.28,0.063,99.0
2021-03-17T04:16:03,42.805,6.029,0.061,-0.03,0.021,106.0,106.0,105.0,13.4,1505.2,327.5,-0.8,1.9,2469.04,13.28,0.067,116.2
2021-03-17T04:19:03,42.805,6.029,0.067,-0.042,0.032,106.0,107.0,105.0,13.4,1505.2,327.1,-0.7,1.8,2469.076,13.28,0.079,122.1
2021-03-17T04:22:03,42.805,6.029,0.048,-0.009,0.034,107.0,107.0,104.0,13.4,1505.2,327.8,-0.7,1.9,2469.183,13.28,0.048,100.6
2021-03-17T04:25:03,42.805,6.029,0.047,-0.041,0.034,107.0,108.0,104.0,13.4,1505.2,327.1,-0.8,1.8,2469.154,13.28,0.062,131.1
2021-03-17T04:28:03,42.805,6.029,0.058,-0.027,0.013,107.0,107.0,104.0,13.4,1505.2,327.4,-0.8,1.8,2469.175,13.28,0.063,115.0
2021-03-17T04:31:03,42.805,6.029,0.041,-0.027,0.04,107.0,107.0,104.0,13.4,1505.2,327.2,-0.7,1.9,2469.26,13.28,0.049,123.4
2021-03-17T04:34:03,42.805,6.029,0.064,-0.029,0.022,107.0,106.0,104.0,13.4,1505.2,327.6,-0.8,1.8,2469.272,13.28,0.07,114.4
2021-03-17T04:37:03,42.805,6.029,0.066,-0.026,0.025,107.0,106.0,103.0,13.3,1505.2,327.0,-0.7,1.8,2469.271,13.28,0.07,111.5
2021-03-17T04:40:03,42.805,6.029,0.05,-0.028,-0.007,106.0,106.0,104.0,13.4,1505.2,327.1,-0.8,1.9,2469.315,13.28,0.057,119.3
2021-03-17T04:43:03,42.805,6.029,0.035,-0.04,0.005,107.0,106.0,104.0,13.4,1505.2,327.8,-0.7,1.8,2469.262,13.28,0.053,138.8
2021-03-17T04:46:03,42.805,6.029,0.06,-0.017,0.023,108.0,106.0,103.0,13.4,1505.2,327.2,-0.8,1.8,2469.328,13.28,0.062,105.8
2021-03-17T04:49:03,42.805,6.029,0.061,-0.015,0.014,107.0,107.0,103.0,13.4,1505.2,326.9,-0.8,1.8,2469.398,13.28,0.062,103.8
2021-03-17T04:52:03,42.805,6.029,0.068,-0.035,-0.004,108.0,108.0,104.0,13.4,1505.2,327.6,-0.8,1.9,2469.403,13.28,0.076,117.2
2021-03-17T04:55:03,42.805,6.029,0.054,-0.053,-0.006,107.0,107.0,104.0,13.4,1505.2,326.8,-0.7,1.8,2469.429,13.28,0.075,134.5
2021-03-17T04:58:03,42.805,6.029,0.067,-0.038,0.006,106.0,106.0,104.0,13.4,1505.2,327.2,-0.8,1.8,2469.392,13.28,0.077,119.6
2021-03-17T05:04:03,42.805,6.029,0.057,-0.038,0.032,108.0,108.0,104.0,13.3,1505.2,327.5,-0.8,1.8,2469.55,13.28,0.068,123.7
2021-03-17T05:07:03,42.805,6.029,0.058,-0.034,-0.004,107.0,107.0,103.0,13.3,1505.2,327.0,-0.7,1.8,2469.564,13.28,0.067,120.4
2021-03-17T05:10:03,42.805,6.029,0.057,-0.027,-0.007,108.0,107.0,104.0,13.4,1505.2,327.5,-0.8,1.8,2469.58,13.28,0.063,115.3
2021-03-17T05:13:03,42.805,6.029,0.05,-0.015,-0.003,107.0,106.0,104.0,13.4,1505.2,327.1,-0.7,1.8,2469.601,13.28,0.052,106.7
2021-03-17T05:16:03,42.805,6.029,0.054,-0.034,0.023,107.0,107.0,104.0,13.4,1505.2,327.2,-0.7,1.8,2469.611,13.28,0.063,122.2
2021-03-17T05:19:03,42.805,6.029,0.066,-0.021,0.012,107.0,107.0,104.0,13.4,1505.2,327.0,-0.8,1.8,2469.599,13.28,0.069,107.6
2021-03-17T05:22:03,42.805,6.029,0.077,-0.026,0.029,107.0,106.0,103.0,13.4,1505.2,326.8,-0.8,1.8,2469.668,13.28,0.081,108.7
2021-03-17T05:25:03,42.805,6.029,0.07,-0.024,0.025,106.0,106.0,104.0,13.3,1505.2,327.2,-0.8,1.8,2469.671,13.28,0.073,108.9
2021-03-17T05:28:03,42.805,6.029,0.059,-0.037,-0.014,107.0,106.0,105.0,13.3,1505.2,326.8,-0.8,1.8,2469.686,13.28,0.069,122.1
2021-03-17T05:31:03,42.805,6.029,0.064,-0.031,-0.017,107.0,106.0,105.0,13.4,1505.2,327.5,-0.8,1.8,2469.703,13.28,0.071,115.8
2021-03-17T05:34:03,42.805,6.029,0.048,-0.012,0.021,106.0,106.0,105.0,13.4,1505.2,327.5,-0.7,1.8,2469.651,13.28,0.049,104.0
2021-03-17T05:37:03,42.805,6.029,0.058,-0.044,0.042,108.0,106.0,104.0,13.3,1505.2,327.1,-0.7,1.8,2469.771,13.28,0.072,127.2
2021-03-17T05:40:03,42.805,6.029,0.058,-0.032,-0.003,106.0,108.0,104.0,13.3,1505.2,327.7,-0.7,1.8,2469.763,13.28,0.066,118.9
2021-03-17T05:43:03,42.805,6.029,0.07,-0.037,0.001,108.0,107.0,104.0,13.4,1505.2,327.7,-0.8,1.8,2469.743,13.28,0.079,117.9
2021-03-17T05:46:03,42.805,6.029,0.063,-0.01,0.019,108.0,108.0,104.0,13.4,1505.2,327.3,-0.8,1.9,2469.759,13.28,0.063,99.0
2021-03-17T05:49:03,42.805,6.029,0.056,-0.023,0.021,107.0,106.0,104.0,13.4,1505.2,327.2,-0.8,1.9,2469.788,13.28,0.06,112.3
2021-03-17T05:52:03,42.805,6.029,0.043,-0.012,0.013,108.0,107.0,104.0,13.4,1505.2,327.2,-0.7,1.8,2469.768,13.28,0.044,105.6
2021-03-17T05:55:03,42.805,6.029,0.068,-0.017,0.029,107.0,106.0,104.0,13.4,1505.2,327.5,-0.8,1.8,2469.808,13.28,0.07,104.0
2021-03-17T05:58:03,42.805,6.029,0.084,-0.05,-0.003,106.0,106.0,104.0,13.4,1505.2,327.1,-0.8,1.8,2469.821,13.28,0.097,120.8
2021-03-17T06:04:03,42.805,6.029,0.057,-0.044,-0.007,107.0,107.0,104.0,13.4,1505.2,327.6,-0.8,1.8,2469.832,13.28,0.072,127.7
2021-03-17T06:07:03,42.805,6.029,0.06,-0.023,0.0,107.0,109.0,104.0,13.4,1505.2,327.5,-0.8,1.8,2469.773,13.28,0.064,111.0
2021-03-17T06:10:03,42.805,6.029,0.075,-0.021,0.015,107.0,107.0,105.0,13.4,1505.2,327.7,-0.7,1.8,2469.819,13.28,0.077,105.6
2021-03-17T06:13:03,42.805,6.029,0.06,-0.028,-0.007,106.0,107.0,103.0,13.4,1505.2,327.6,-0.8,1.8,2469.793,13.28,0.066,115.0
2021-03-17T06:16:03,42.805,6.029,0.063,-0.023,0.01,108.0,106.0,104.0,13.4,1505.2,327.6,-0.8,1.8,2469.77,13.28,0.067,110.1
2021-03-17T06:19:03,42.805,6.029,0.045,-0.037,0.008,107.0,107.0,105.0,13.3,1505.2,327.1,-0.8,1.8,2469.754,13.28,0.058,129.4
2021-03-17T06:22:03,42.805,6.029,0.061,-0.04,0.036,108.0,107.0,104.0,13.4,1505.2,327.5,-0.8,1.8,2469.713,13.28,0.072,123.3
2021-03-17T06:25:03,42.805,6.029,0.057,-0.029,0.008,107.0,108.0,105.0,13.3,1505.2,327.4,-0.7,1.8,2469.718,13.28,0.063,117.0
2021-03-17T06:28:03,42.805,6.029,0.063,-0.033,0.004,108.0,108.0,104.0,13.4,1505.2,327.0,-0.7,1.8,2469.637,13.28,0.071,117.6
2021-03-17T06:31:03,42.805,6.029,0.04,-0.035,0.007,107.0,106.0,105.0,13.4,1505.2,327.8,-0.8,1.8,2469.738,13.28,0.053,131.2
2021-03-17T06:34:03,42.805,6.029,0.054,-0.036,0.006,107.0,106.0,106.0,13.3,1505.2,327.4,-0.7,1.8,2469.631,13.28,0.064,123.7
2021-03-17T06:37:03,42.805,6.029,0.055,-0.043,-0.009,107.0,106.0,103.0,13.3,1505.2,327.1,-0.8,1.9,2469.626,13.28,0.069,128.0
2021-03-17T06:40:03,42.805,6.029,0.058,-0.04,-0.017,107.0,106.0,104.0,13.4,1505.2,327.3,-0.7,1.8,2469.628,13.28,0.07,124.6
2021-03-17T06:43:03,42.805,6.029,0.056,-0.032,0.006,106.0,108.0,104.0,13.3,1505.2,327.6,-0.8,1.8,2469.64,13.28,0.064,119.7
2021-03-17T06:46:03,42.805,6.029,0.07,-0.031,-0.004,107.0,106.0,104.0,13.3,1505.2,327.0,-0.7,1.8,2469.662,13.28,0.076,113.9
2021-03-17T06:49:03,42.805,6.029,0.061,-0.019,0.017,107.0,107.0,104.0,13.3,1505.2,327.1,-0.8,1.8,2469.603,13.28,0.063,107.3
2021-03-17T06:52:03,42.805,6.029,0.07,-0.04,0.012,107.0,108.0,104.0,13.4,1505.2,327.3,-0.7,1.8,2469.563,13.28,0.08,119.7
2021-03-17T06:55:03,42.805,6.029,0.052,-0.042,0.01,108.0,107.0,104.0,13.4,1505.2,327.1,-0.7,1.8,2469.616,13.28,0.066,128.9
2021-03-17T06:58:03,42.805,6.029,0.047,-0.019,-0.003,108.0,108.0,106.0,13.3,1505.2,327.7,-0.7,1.9,2469.582,13.28,0.05,112.0
2021-03-17T07:04:03,42.805,6.029,0.066,-0.043,0.027,108.0,108.0,105.0,13.4,1505.2,327.6,-0.7,1.9,2469.62,13.28,0.078,123.1
2021-03-17T07:07:03,42.805,6.029,0.089,-0.034,0.033,106.0,107.0,104.0,13.4,1505.2,327.6,-0.7,1.8,2469.552,13.28,0.095,110.9
2021-03-17T07:10:03,42.805,6.029,0.061,-0.024,-0.002,107.0,107.0,104.0,13.3,1505.2,327.2,-0.7,1.8,2469.546,13.28,0.065,111.5
2021-03-17T07:13:03,42.805,6.029,0.073,-0.032,0.016,106.0,107.0,104.0,13.3,1505.2,327.2,-0.8,1.9,2469.452,13.28,0.079,113.7
2021-03-17T07:16:03,42.805,6.029,0.056,-0.027,0.027,107.0,108.0,105.0,13.4,1505.2,327.5,-0.8,1.8,2469.458,13.28,0.062,115.7
2021-03-17T07:19:03,42.805,6.029,0.066,-0.038,0.01,108.0,106.0,104.0,13.3,1505.2,327.3,-0.8,1.9,2469.465,13.28,0.076,119.9
2021-03-17T07:22:03,42.805,6.029,0.068,-0.051,0.043,108.0,108.0,104.0,13.3,1505.2,327.0,-0.8,1.8,2469.429,13.28,0.084,126.9
2021-03-17T07:25:03,42.805,6.029,0.055,-0.016,0.01,109.0,108.0,104.0,13.4,1505.2,327.3,-0.8,1.8,2469.456,13.28,0.057,106.2
2021-03-17T07:28:03,42.805,6.029,0.066,-0.026,0.013,108.0,107.0,106.0,13.4,1505.2,327.6,-0.7,1.8,2469.465,13.28,0.07,111.5
2021-03-17T07:31:03,42.805,6.029,0.057,-0.026,0.031,109.0,107.0,105.0,13.4,1505.2,327.2,-0.7,1.8,2469.542,13.28,0.062,114.5
2021-03-17T07:34:03,42.805,6.029,0.062,-0.042,0.021,107.0,108.0,104.0,13.4,1505.2,327.4,-0.8,1.8,2469.531,13.28,0.074,124.1
2021-03-17T07:37:03,42.805,6.029,0.054,-0.032,-0.017,108.0,107.0,105.0,13.3,1505.2,327.3,-0.7,1.8,2469.312,13.28,0.062,120.7
2021-03-17T07:40:03,42.805,6.029,0.072,-0.048,0.007,108.0,107.0,105.0,13.4,1505.2,327.5,-0.7,1.8,2469.273,13.28,0.086,123.7
2021-03-17T07:43:03,42.805,6.029,0.057,-0.033,0.041,107.0,108.0,105.0,13.4,1505.2,327.1,-0.8,1.8,2469.282,13.28,0.065,120.1
2021-03-17T07:46:03,42.805,6.029,0.071,-0.019,0.021,107.0,107.0,104.0,13.4,1505.2,327.1,-0.7,1.8,2469.268,13.28,0.073,105.0
2021-03-17T07:49:03,42.805,6.029,0.042,-0.029,0.008,107.0,107.0,104.0,13.4,1505.2,327.1,-0.8,1.8,2469.249,13.28,0.051,124.6
2021-03-17T07:52:03,42.805,6.029,0.053,-0.035,0.019,107.0,108.0,103.0,13.3,1505.2,327.3,-0.7,1.8,2469.633,13.28,0.063,123.4
2021-03-17T07:55:03,42.805,6.029,0.061,-0.029,0.032,107.0,107.0,105.0,13.4,1505.2,327.5,-0.7,1.8,2469.885,13.28,0.067,115.4
2021-03-17T07:58:03,42.805,6.029,0.058,-0.03,0.004,108.0,109.0,104.0,13.4,1505.2,327.0,-0.8,1.8,2470.029,13.28,0.065,117.4
2021-03-17T08:04:03,42.805,6.029,0.067,-0.02,0.034,108.0,107.0,105.0,13.4,1505.2,327.0,-0.8,1.8,2469.793,13.28,0.069,106.6
2021-03-17T08:07:03,42.805,6.029,0.056,-0.035,0.042,108.0,108.0,104.0,13.4,1505.2,327.0,-0.7,1.8,2469.818,13.28,0.066,122.0
2021-03-17T08:10:03,42.805,6.029,0.061,-0.025,0.01,107.0,107.0,104.0,13.3,1505.2,326.5,-0.8,1.8,2469.854,13.28,0.065,112.3
2021-03-17T08:13:03,42.805,6.029,0.043,-0.032,0.005,109.0,107.0,105.0,13.4,1505.2,327.0,-0.7,1.8,2469.804,13.28,0.053,126.7
2021-03-17T08:16:03,42.805,6.029,0.054,-0.036,-0.012,108.0,107.0,104.0,13.3,1505.2,327.0,-0.8,1.8,2469.86,13.28,0.064,123.7
2021-03-17T08:19:03,42.805,6.029,0.067,-0.017,0.004,108.0,107.0,105.0,13.4,1505.2,326.7,-0.8,1.8,2469.837,13.28,0.069,104.2
2021-03-17T08:22:03,42.805,6.029,0.039,-0.013,0.014,107.0,107.0,104.0,13.4,1505.2,327.7,-0.7,1.8,2469.794,13.28,0.041,108.4
2021-03-17T08:25:03,42.805,6.029,0.055,-0.023,0.015,108.0,108.0,105.0,13.4,1505.2,327.4,-0.8,1.8,2469.786,13.28,0.059,112.7
2021-03-17T08:28:03,42.805,6.029,0.067,-0.025,0.011,109.0,107.0,105.0,13.4,1505.2,326.7,-0.8,1.8,2469.795,13.28,0.071,110.5
2021-03-17T08:31:03,42.805,6.029,0.06,-0.033,0.025,107.0,107.0,105.0,13.3,1505.2,327.5,-0.7,1.8,2469.732,13.28,0.068,118.8
2021-03-17T08:34:03,42.805,6.029,0.049,-0.03,0.024,107.0,108.0,104.0,13.4,1505.2,327.6,-0.8,1.8,2469.776,13.28,0.057,121.5
2021-03-17T08:37:03,42.805,6.029,0.04,-0.018,0.027,107.0,106.0,104.0,13.3,1505.2,327.1,-0.7,1.8,2469.692,13.28,0.043,114.2
2021-03-17T08:40:03,42.805,6.029,0.051,-0.021,0.008,108.0,107.0,104.0,13.4,1505.2,327.2,-0.7,1.8,2469.484,13.28,0.055,112.4
2021-03-17T08:43:03,42.805,6.029,0.072,-0.024,-0.014,108.0,108.0,104.0,13.4,1505.2,327.1,-0.7,1.9,2469.471,13.28,0.075,108.4
2021-03-17T08:46:03,42.805,6.029,0.053,-0.032,0.002,107.0,107.0,105.0,13.4,1505.2,327.0,-0.7,1.8,2469.442,13.28,0.061,121.1
2021-03-17T08:49:03,42.805,6.029,0.057,-0.023,0.0,107.0,107.0,105.0,13.3,1505.2,327.3,-0.8,1.8,2469.443,13.28,0.061,112.0
2021-03-17T08:52:03,42.805,6.029,0.038,-0.012,0.001,109.0,107.0,103.0,13.4,1505.2,327.2,-0.8,1.8,2469.385,13.28,0.039,107.5
2021-03-17T08:55:03,42.805,6.029,0.049,-0.04,-0.01,106.0,107.0,104.0,13.3,1505.2,327.4,-0.7,1.8,2469.459,13.28,0.063,129.2
2021-03-17T08:58:03,42.805,6.029,0.069,-0.038,0.016,107.0,108.0,104.0,13.4,1505.2,327.6,-0.7,1.8,2469.468,13.28,0.078,118.8
2021-03-17T09:04:03,42.805,6.029,0.075,-0.027,0.047,106.0,107.0,104.0,13.4,1505.2,327.5,-0.8,1.8,2469.443,13.28,0.079,109.8
2021-03-17T09:07:03,42.805,6.029,0.069,-0.033,-0.026,108.0,107.0,104.0,13.4,1505.2,327.1,-0.7,1.8,2469.394,13.28,0.076,115.6
2021-03-17T09:10:03,42.805,6.029,0.04,-0.012,0.035,108.0,107.0,106.0,13.4,1505.2,327.4,-0.8,1.9,2469.327,13.28,0.041,106.7
2021-03-17T09:13:03,42.805,6.029,0.055,-0.026,0.032,108.0,109.0,104.0,13.4,1505.2,327.2,-0.8,1.8,2469.238,13.28,0.06,115.3
2021-03-17T09:16:03,42.805,6.029,0.08,-0.017,0.031,107.0,110.0,104.0,13.4,1505.2,327.1,-0.8,1.8,2469.208,13.28,0.081,102.0
2021-03-17T09:19:03,42.805,6.029,0.069,-0.033,0.031,108.0,107.0,104.0,13.4,1505.2,327.5,-0.7,1.8,2469.174,13.28,0.076,115.6
2021-03-17T09:22:03,42.805,6.029,0.057,-0.038,-0.025,108.0,107.0,104.0,13.4,1505.2,327.4,-0.8,1.8,2469.063,13.28,0.068,123.7
2021-03-17T09:25:03,42.805,6.029,0.059,-0.03,-0.008,108.0,108.0,104.0,13.4,1505.2,327.3,-0.8,1.8,2468.83,13.28,0.066,116.9
2021-03-17T09:28:03,42.805,6.029,0.083,-0.036,0.02,108.0,108.0,105.0,13.4,1505.2,327.3,-0.7,1.8,2468.604,13.28,0.09,113.4
2021-03-17T09:31:03,42.805,6.029,0.055,-0.035,-0.016,107.0,107.0,104.0,13.4,1505.2,327.1,-0.8,1.8,2468.75,13.28,0.065,122.5
2021-03-17T09:34:03,42.805,6.029,0.055,-0.05,0.024,108.0,108.0,104.0,13.3,1505.2,327.7,-0.8,1.9,2468.804,13.28,0.074,132.3
2021-03-17T09:37:03,42.805,6.029,0.068,-0.034,-0.02,108.0,107.0,105.0,13.4,1505.2,327.0,-0.8,1.9,2468.783,13.28,0.076,116.6
2021-03-17T09:40:03,42.805,6.029,0.057,-0.037,-0.008,109.0,107.0,105.0,13.4,1505.2,327.1,-0.8,1.8,2468.682,13.28,0.067,123.0
2021-03-17T09:43:03,42.805,6.029,0.045,-0.02,0.01,106.0,107.0,105.0,13.4,1505.2,327.0,-0.7,1.8,2468.838,13.28,0.049,114.0
2021-03-17T09:46:03,42.805,6.029,0.058,-0.038,0.026,107.0,108.0,104.0,13.3,1505.2,327.6,-0.7,1.8,2468.791,13.28,0.069,123.2
2021-03-17T09:49:03,42.805,6.029,0.066,-0.035,0.012,109.0,107.0,104.0,13.4,1505.2,327.5,-0.7,1.8,2468.72,13.28,0.074,117.9
2021-03-17T09:52:03,42.805,6.029,0.044,-0.038,0.017,106.0,107.0,105.0,13.4,1505.2,327.1,-0.8,1.8,2468.572,13.28,0.058,130.8
2021-03-17T09:55:03,42.805,6.029,0.046,-0.021,0.003,109.0,109.0,105.0,13.4,1505.2,327.1,-0.7,1.8,2468.598,13.28,0.05,114.5
2021-03-17T09:58:03,42.805,6.029,0.057,-0.027,0.02,108.0,107.0,106.0,13.4,1505.2,327.1,-0.8,1.8,2468.546,13.28,0.063,115.3